Weather History for Silver City, NM

Change the Weather History Date:

Tuesday, March 12, 2013

  Actual Average (KDMN) Record (KDMN)
Temperature  
Mean Temperature 49 °F 50 °F  
Max Temperature 66 °F 67 °F 90 °F (1989)
Min Temperature 32 °F 35 °F 18 °F (1959)
Degree Days  
Heating Degree Days 16    
Moisture  
Dew Point 14 °F    
Average Humidity 27    
Maximum Humidity 48    
Minimum Humidity 12    
Precipitation  
Precipitation 0.00 in 0.01 in 0.57 in (1958)
Month to date precipitation 0.22  
Year to date precipitation 1.42  
Sea Level Pressure  
Sea Level Pressure 30.20 in    
Wind  
Wind Speed 9 mph (SE)    
Max Wind Speed 15 mph    
Max Gust Speed 21 mph    
Visibility 10 miles    
Events      
T = Trace of Precipitation, MM = Missing Value Source: NWS Daily Summary

Daily Weather History Graph

Daily Weather History Graph

Search for Another Location

Airport:

Trip Planner

Search our weather history database for the weather conditions in past years. The results will help you decide how hot, cold, wet, or windy it might be!

Date:

Astronomy

Mar. 12, 2013 Rise Set
Actual Time 7:26 AM MDT 7:18 PM MDT
Civil Twilight 7:01 AM MDT 7:43 PM MDT
Nautical Twilight 6:33 AM MDT 8:11 PM MDT
Astronomical Twilight 6:04 AM MDT 8:40 PM MDT
Moon 7:39 AM MDT (3/12) 8:29 PM MDT (3/12)
Length of Visible Light 12h 41m
Length of Day
11h 52m
New Moon, 1% of the Moon is Illuminated
Mar 12
New Moon
Mar 19
First Quarter
Mar 27
Full
Apr 2
Last Quarter
Apr 10
New

Hourly Weather History & Observations

Time (MDT) Temp. Windchill Dew Point Humidity Pressure Visibility Wind Dir Wind Speed Gust Speed Precip Events Conditions
12:15 AM 39.2 °F 33.6 °F 15.8 °F 39% 30.14 in 10.0 mi NNW 8.1 mph - N/A   Clear
12:35 AM 35.6 °F 28.0 °F 15.8 °F 44% 30.14 in 10.0 mi North 10.4 mph - N/A   Clear
12:55 AM 39.2 °F 33.0 °F 17.6 °F 42% 30.14 in 10.0 mi NNW 9.2 mph - N/A   Clear
1:15 AM 37.4 °F 30.8 °F 17.6 °F 45% 30.14 in 10.0 mi NNW 9.2 mph - N/A   Clear
1:55 AM 39.2 °F 32.5 °F 19.4 °F 45% 30.14 in 10.0 mi North 10.4 mph - N/A   Clear
2:15 AM 37.4 °F 29.3 °F 17.6 °F 45% 30.14 in 10.0 mi North 12.7 mph - N/A   Clear
2:35 AM 37.4 °F 29.3 °F 17.6 °F 45% 30.14 in 10.0 mi NNW 12.7 mph - N/A   Clear
2:55 AM 37.4 °F 29.8 °F 17.6 °F 45% 30.14 in 10.0 mi NW 11.5 mph - N/A   Clear
3:15 AM 37.4 °F 31.4 °F 17.6 °F 45% 30.14 in 10.0 mi NNW 8.1 mph - N/A   Clear
3:35 AM 37.4 °F 29.3 °F 17.6 °F 45% 30.13 in 10.0 mi NW 12.7 mph - N/A   Clear
3:55 AM 37.4 °F 32.8 °F 17.6 °F 45% 30.13 in 10.0 mi NNE 5.8 mph - N/A   Clear
4:15 AM 37.4 °F 29.3 °F 17.6 °F 45% 30.13 in 10.0 mi North 12.7 mph - N/A   Clear
4:55 AM 35.6 °F 28.6 °F 15.8 °F 44% 30.13 in 10.0 mi North 9.2 mph - N/A   Clear
5:15 AM 32.0 °F 23.0 °F 14.0 °F 48% 30.13 in 10.0 mi NNW 11.5 mph - N/A   Clear
5:35 AM 32.0 °F 23.0 °F 14.0 °F 48% 30.14 in 10.0 mi NNW 11.5 mph - N/A   Clear
6:15 AM 32.0 °F 24.8 °F 14.0 °F 48% 30.14 in 10.0 mi NNW 8.1 mph - N/A   Clear
6:35 AM 32.0 °F 23.6 °F 12.2 °F 44% 30.15 in 10.0 mi NNW 10.4 mph - N/A   Clear
6:55 AM 32.0 °F 24.2 °F 14.0 °F 48% 30.15 in 10.0 mi NNW 9.2 mph - N/A   Clear
7:15 AM 32.0 °F 23.6 °F 12.2 °F 44% 30.15 in 10.0 mi NNW 10.4 mph - N/A   Clear
7:35 AM 32.0 °F 24.2 °F 12.2 °F 44% 30.16 in 10.0 mi NW 9.2 mph - N/A   Clear
7:55 AM 35.6 °F 29.2 °F 14.0 °F 41% 30.17 in 10.0 mi NNW 8.1 mph - N/A   Clear
8:15 AM 39.2 °F 33.6 °F 14.0 °F 36% 30.17 in 10.0 mi NNW 8.1 mph - N/A   Clear
8:35 AM 44.6 °F 41.4 °F 15.8 °F 31% 30.18 in 10.0 mi North 5.8 mph - N/A   Clear
8:55 AM 48.2 °F - 15.8 °F 27% 30.19 in 10.0 mi NNW 4.6 mph - N/A   Clear
9:15 AM 51.8 °F - 14.0 °F 22% 30.21 in 10.0 mi Calm Calm - N/A   Clear
9:35 AM 53.6 °F - 12.2 °F 19% 30.21 in 10.0 mi Calm Calm - N/A   Clear
9:55 AM 55.4 °F - 14.0 °F 20% 30.22 in 10.0 mi SE 8.1 mph - N/A   Clear
10:15 AM 57.2 °F - 14.0 °F 18% 30.23 in 10.0 mi SSE 8.1 mph - N/A   Clear
10:35 AM 57.2 °F - 14.0 °F 18% 30.23 in 10.0 mi South 8.1 mph - N/A   Clear
10:55 AM 57.2 °F - 14.0 °F 18% 30.24 in 10.0 mi South 8.1 mph - N/A   Clear
11:15 AM 57.2 °F - 14.0 °F 18% 30.24 in 10.0 mi South 8.1 mph - N/A   Clear
11:35 AM 59.0 °F - 14.0 °F 17% 30.25 in 10.0 mi SSE 5.8 mph - N/A   Clear
11:55 AM 59.0 °F - 12.2 °F 16% 30.25 in 10.0 mi South 6.9 mph - N/A   Clear
12:15 PM 60.8 °F - 10.4 °F 14% 30.25 in 10.0 mi South 4.6 mph - N/A   Clear
12:35 PM 62.6 °F - 10.4 °F 13% 30.25 in 10.0 mi West 3.5 mph - N/A   Clear
12:55 PM 64.4 °F - 10.4 °F 12% 30.24 in 10.0 mi SE 8.1 mph - N/A   Clear
1:15 PM 64.4 °F - 12.2 °F 13% 30.23 in 10.0 mi SW 5.8 mph - N/A   Clear
1:35 PM 64.4 °F - 14.0 °F 14% 30.22 in 10.0 mi SSE 6.9 mph - N/A   Clear
1:55 PM 66.2 °F - 14.0 °F 13% 30.22 in 10.0 mi South 11.5 mph - N/A   Clear
2:15 PM 66.2 °F - 14.0 °F 13% 30.21 in 10.0 mi SSE 10.4 mph 18.4 mph N/A   Clear
2:35 PM 66.2 °F - 14.0 °F 13% 30.21 in 10.0 mi South 6.9 mph - N/A   Clear
2:55 PM 66.2 °F - 14.0 °F 13% 30.20 in 10.0 mi SSE 8.1 mph 16.1 mph N/A   Clear
3:15 PM 66.2 °F - 14.0 °F 13% 30.20 in 10.0 mi South 15.0 mph 20.7 mph N/A   Clear
3:35 PM 66.2 °F - 14.0 °F 13% 30.20 in 10.0 mi South 6.9 mph - N/A   Clear
3:55 PM 66.2 °F - 14.0 °F 13% 30.19 in 10.0 mi SSW 13.8 mph 17.3 mph N/A   Clear
4:15 PM 66.2 °F - 14.0 °F 13% 30.19 in 10.0 mi South 11.5 mph 18.4 mph N/A   Clear
4:35 PM 66.2 °F - 12.2 °F 12% 30.19 in 10.0 mi South 5.8 mph - N/A   Clear
4:55 PM 66.2 °F - 12.2 °F 12% 30.19 in 10.0 mi SSE 10.4 mph 16.1 mph N/A   Clear
5:15 PM 66.2 °F - 12.2 °F 12% 30.19 in 10.0 mi SSE 10.4 mph - N/A   Clear
5:55 PM 66.2 °F - 12.2 °F 12% 30.19 in 10.0 mi SE 9.2 mph - N/A   Clear
6:15 PM 64.4 °F - 12.2 °F 13% 30.20 in 10.0 mi SSE 10.4 mph - N/A   Clear
6:35 PM 64.4 °F - 12.2 °F 13% 30.21 in 10.0 mi SSE 9.2 mph - N/A   Clear
6:55 PM 62.6 °F - 12.2 °F 14% 30.21 in 10.0 mi SSE 8.1 mph - N/A   Clear
7:15 PM 59.0 °F - 10.4 °F 15% 30.21 in 10.0 mi SSE 6.9 mph - N/A   Clear
7:35 PM 57.2 °F - 10.4 °F 16% 30.22 in 10.0 mi SE 6.9 mph - N/A   Clear
7:55 PM 57.2 °F - 10.4 °F 16% 30.23 in 10.0 mi SE 5.8 mph - N/A   Clear
8:15 PM 57.2 °F - 10.4 °F 16% 30.23 in 10.0 mi SE 5.8 mph - N/A   Clear
8:35 PM 55.4 °F - 10.4 °F 17% 30.24 in 10.0 mi SE 5.8 mph - N/A   Clear
8:55 PM 53.6 °F - 10.4 °F 18% 30.25 in 10.0 mi ESE 4.6 mph - N/A   Clear
9:35 PM 41.0 °F - 8.6 °F 26% 30.26 in 10.0 mi Calm Calm - N/A   Clear
9:55 PM 44.6 °F - 14.0 °F 29% 30.27 in 10.0 mi Calm Calm - N/A   Clear
10:15 PM 41.0 °F 39.0 °F 8.6 °F 26% 30.28 in 10.0 mi NNE 3.5 mph - N/A   Clear
10:35 PM 41.0 °F 38.0 °F 10.4 °F 29% 30.28 in 10.0 mi ENE 4.6 mph - N/A   Clear
10:55 PM 41.0 °F 37.1 °F 10.4 °F 29% 30.29 in 10.0 mi NE 5.8 mph - N/A   Clear
11:35 PM 39.2 °F 32.5 °F 12.2 °F 33% 30.29 in 10.0 mi North 10.4 mph - N/A   Clear
11:55 PM 41.0 °F 34.7 °F 15.8 °F 36% 30.29 in 10.0 mi North 10.4 mph - N/A   Clear